Terug naar catalogus

STARLINK-30227

ActiefCommunicatieVLEO
NORAD 57505·PAYLOAD·🇺🇸 United States

Gelanceerd Aug 7, 2023 vanaf Cape Canaveral Space Force Station

Loading…

Volgende Passages (komende 24 uur)

TLE

VersSource: CelesTrak SupGP

Epoch: Sep 15, 2026, 02:52 UTC

1 57505C 23113L   26258.11993056  .00035300  00000+0  10927-2 0  2588
2 57505  42.9956  15.8846 0018186 323.1905  74.8745 15.32459632    14

Volg STARLINK-30227 in realtime met AllMySat

Download on the App Store